Location: Newark
(49.2191°N, 12.6671°E)
Time: 07:24:03
(UTC+00:00)

Transit 2A - Pass Details

Date: 25 January 2020
Orbit: 600 x 959 km, 66.7° (Epoch: 21 February)

Event Time Altitude Azimuth Distance (km) Brightness Sun altitude
Exits shadow 04:56:46 23° 233° (SW) 1,528 7.2 -18.3°
Drops below altitude 10° 05:00:02 10° 196° (SSW) 2,292 8.4 -17.8°
Sets 05:02:56 0° 183° (S) 3,285 9.4 -17.3°
